,,PA_Meas_PMT16A,,PR_Meas_QMR101_102,,RH_Meas_QMH101,,SR_Meas_QMS101,,TA_Meas_QMH101,,GenWind,,GenWind,
time,status,PA,status,PR,status,RH,status,SR,status,TA,status,DirAvg,status,SpdAvg,
2010-12-20, 00:00:04,VALID,917.313,VALID,0,VALID,96.6725,VALID,0,VALID,20.639,VALID,358,VALID,0.0195313,
2010-12-20, 00:01:04,VALID,917.306,VALID,0,VALID,96.6802,VALID,0,VALID,20.5984,VALID,358,VALID,0,
2010-12-20, 00:02:04,VALID,917.298,VALID,0,VALID,96.6497,VALID,0,VALID,20.6194,VALID,358,VALID,0.313672,
2010-12-20, 00:03:04,VALID,917.303,VALID,0,VALID,96.6573,VALID,0,VALID,20.5999,VALID,358,VALID,0.289063,
2010-12-20, 00:04:04,VALID,917.286,VALID,0,VALID,96.6802,VALID,0,VALID,20.5999,VALID,358,VALID,0.0925781,
2010-12-20, 00:05:04,VALID,917.295,VALID,0,VALID,96.6954,VALID,0,VALID,20.5984,VALID,358,VALID,0.128125,
2010-12-20, 00:06:04,VALID,917.299,VALID,0,VALID,96.7488,VALID,0,VALID,20.6194,VALID,358,VALID,0.484375,
2010-12-20, 00:07:04,VALID,917.289,VALID,0,VALID,96.7107,VALID,0,VALID,20.639,VALID,358,VALID,0.596875,
2010-12-20, 00:08:04,VALID,917.3,VALID,0,VALID,96.7411,VALID,0,VALID,20.639,VALID,358,VALID,0.714844,
2010-12-20, 00:09:04,VALID,917.285,VALID,0,VALID,96.703,VALID,0,VALID,20.639,VALID,358,VALID,0.847656,
2010-12-20, 00:10:04,VALID,917.277,VALID,0,VALID,96.7564,VALID,0,VALID,20.6374,VALID,358,VALID,0.704297,
2010-12-20, 00:11:04,VALID,917.285,VALID,0,VALID,96.7488,VALID,0,VALID,20.6585,VALID,358,VALID,0.754687,
2010-12-20, 00:12:04,VALID,917.287,VALID,0,VALID,96.7869,VALID,0,VALID,20.678,VALID,358,VALID,0.6,
2010-12-20, 00:13:04,VALID,917.283,VALID,0,VALID,96.7793,VALID,0,VALID,20.6975,VALID,358,VALID,0.721094,
2010-12-20, 00:14:04,VALID,917.28,VALID,0,VALID,96.6878,VALID,0,VALID,20.678,VALID,358,VALID,0.639063,
2010-12-20, 00:15:04,VALID,917.27,VALID,0,VALID,96.7411,VALID,0,VALID,20.6569,VALID,358,VALID,0.633594,
2010-12-20, 00:16:04,VALID,917.304,VALID,0,VALID,96.6497,VALID,0,VALID,20.6374,VALID,358,VALID,0.764844,
2010-12-20, 00:17:04,VALID,917.309,VALID,0,VALID,96.642,VALID,0.107441,VALID,20.5984,VALID,358,VALID,0.59375,
2010-12-20, 00:18:04,VALID,917.302,VALID,0,VALID,96.5887,VALID,0.107441,VALID,20.5594,VALID,358,VALID,0.576953,
2010-12-20, 00:19:04,VALID,917.313,VALID,0,VALID,96.5811,VALID,0,VALID,20.4993,VALID,358,VALID,0.657031,
2010-12-20, 00:20:04,VALID,917.271,VALID,0,VALID,96.5734,VALID,0,VALID,20.4813,VALID,358,VALID,0.944141,
2010-12-20, 00:21:04,VALID,917.275,VALID,0,VALID,96.6497,VALID,0.107441,VALID,20.4813,VALID,358,VALID,0.509766,
2010-12-20, 00:22:04,VALID,917.264,VALID,0,VALID,96.6649,VALID,0,VALID,20.5009,VALID,358,VALID,0.778516,
2010-12-20, 00:23:04,VALID,917.288,VALID,0,VALID,96.6878,VALID,0,VALID,20.4813,VALID,358,VALID,0.489062,
2010-12-20, 00:24:04,VALID,917.274,VALID,0,VALID,96.6802,VALID,0.107441,VALID,20.4813,VALID,358,VALID,0.499609,
2010-12-20, 00:25:04,VALID,917.279,VALID,0,VALID,96.6878,VALID,0,VALID,20.5009,VALID,358,VALID,0.447266,
2010-12-20, 00:26:04,VALID,917.268,VALID,0,VALID,96.642,VALID,0,VALID,20.5009,VALID,358,VALID,0.314063,
2010-12-20, 00:27:04,VALID,917.261,VALID,0,VALID,96.6649,VALID,0.107441,VALID,20.4813,VALID,358,VALID,0.500391,
2010-12-20, 00:28:04,VALID,917.259,VALID,0,VALID,96.6497,VALID,0,VALID,20.4618,VALID,358,VALID,0.374219,
2010-12-20, 00:29:04,VALID,917.209,VALID,0,VALID,96.7107,VALID,0,VALID,20.4813,VALID,358,VALID,0.459766,
2010-12-20, 00:30:04,VALID,917.194,VALID,0,VALID,96.6802,VALID,0,VALID,20.4634,VALID,358,VALID,0.4875,
2010-12-20, 00:31:04,VALID,917.189,VALID,0,VALID,96.642,VALID,0,VALID,20.4228,VALID,358,VALID,0.707422,
2010-12-20, 00:32:04,VALID,917.16,VALID,0,VALID,96.6497,VALID,0,VALID,20.4244,VALID,358,VALID,0.353125,
2010-12-20, 00:33:04,VALID,917.173,VALID,0,VALID,96.6954,VALID,0,VALID,20.4439,VALID,358,VALID,0.0546875,
2010-12-20, 00:34:04,VALID,917.184,VALID,0,VALID,96.7183,VALID,0,VALID,20.4634,VALID,358,VALID,0.121484,
2010-12-20, 00:35:04,VALID,917.186,VALID,0,VALID,96.7716,VALID,0,VALID,20.4618,VALID,358,VALID,0.728516,
2010-12-20, 00:36:04,VALID,917.153,VALID,0,VALID,96.7488,VALID,0,VALID,20.5024,VALID,358,VALID,0.431641,
2010-12-20, 00:37:04,VALID,917.129,VALID,0,VALID,96.6954,VALID,0,VALID,20.4634,VALID,358,VALID,0.767969,
2010-12-20, 00:38:04,VALID,917.135,VALID,0,VALID,96.7488,VALID,0,VALID,20.4634,VALID,16,VALID,0.923437,
2010-12-20, 00:39:04,VALID,917.117,VALID,0,VALID,96.7183,VALID,0,VALID,20.4634,VALID,16,VALID,0.785937,
2010-12-20, 00:40:04,VALID,917.129,VALID,0,VALID,96.7488,VALID,0,VALID,20.4423,VALID,16,VALID,0.776563,
2010-12-20, 00:41:04,VALID,917.165,VALID,0,VALID,96.7488,VALID,0,VALID,20.4634,VALID,16,VALID,1.01563,
2010-12-20, 00:42:04,VALID,917.184,VALID,0,VALID,96.7411,VALID,0,VALID,20.4634,VALID,16,VALID,1.09648,
2010-12-20, 00:43:04,VALID,917.21,VALID,0,VALID,96.7107,VALID,0,VALID,20.4049,VALID,16,VALID,1.67344,
2010-12-20, 00:44:04,VALID,917.211,VALID,0,VALID,96.7259,VALID,0,VALID,20.4049,VALID,16,VALID,1.62422,
2010-12-20, 00:45:04,VALID,917.207,VALID,0,VALID,96.7183,VALID,0,VALID,20.3838,VALID,16,VALID,1.86367,
2010-12-20, 00:46:04,VALID,917.256,VALID,0,VALID,96.7183,VALID,0,VALID,20.3448,VALID,1,VALID,1.2625,
2010-12-20, 00:47:04,VALID,917.234,VALID,0,VALID,96.7793,VALID,0,VALID,20.3238,VALID,1,VALID,0.810938,
2010-12-20, 00:48:04,VALID,917.264,VALID,0,VALID,96.7411,VALID,0,VALID,20.3253,VALID,19,VALID,1.67773,
2010-12-20, 00:49:04,VALID,917.26,VALID,0,VALID,96.7259,VALID,0,VALID,20.2863,VALID,5,VALID,0.989453,
2010-12-20, 00:50:04,VALID,917.258,VALID,0,VALID,96.7183,VALID,0,VALID,20.3058,VALID,5,VALID,0.879297,
2010-12-20, 00:51:04,VALID,917.284,VALID,0,VALID,96.7411,VALID,0.107441,VALID,20.2863,VALID,5,VALID,0.880078,
2010-12-20, 00:52:04,VALID,917.297,VALID,0,VALID,96.764,VALID,0,VALID,20.3058,VALID,5,VALID,0.496484,
2010-12-20, 00:53:04,VALID,917.307,VALID,0,VALID,96.7716,VALID,0,VALID,20.3253,VALID,5,VALID,0.509375,
2010-12-20, 00:54:04,VALID,917.294,VALID,0,VALID,96.764,VALID,0,VALID,20.3464,VALID,5,VALID,0.778516,
2010-12-20, 00:55:04,VALID,917.276,VALID,0,VALID,96.7183,VALID,0,VALID,20.3269,VALID,4,VALID,1.1293,
2010-12-20, 00:56:04,VALID,917.307,VALID,0,VALID,96.6573,VALID,0,VALID,20.2863,VALID,4,VALID,1.44453,
2010-12-20, 00:57:04,VALID,917.271,VALID,0,VALID,96.703,VALID,0,VALID,20.3058,VALID,5,VALID,1.17891,
2010-12-20, 00:58:04,VALID,917.251,VALID,0,VALID,96.6878,VALID,0.107441,VALID,20.2863,VALID,19,VALID,1.73203,
2010-12-20, 00:59:04,VALID,917.244,VALID,0,VALID,96.7107,VALID,0,VALID,20.2863,VALID,17,VALID,1.07734,
2010-12-20, 01:00:04,VALID,917.263,VALID,0,VALID,96.6802,VALID,0,VALID,20.2863,VALID,17,VALID,0.823828,
2010-12-20, 01:01:04,VALID,917.247,VALID,0,VALID,96.7259,VALID,0,VALID,20.2863,VALID,17,VALID,0.816016,
2010-12-20, 01:02:04,VALID,917.224,VALID,0,VALID,96.7183,VALID,0.107441,VALID,20.2863,VALID,6,VALID,1.3957,
2010-12-20, 01:03:04,VALID,917.229,VALID,0,VALID,96.703,VALID,0,VALID,20.2473,VALID,42,VALID,1.6875,
2010-12-20, 01:04:04,VALID,917.204,VALID,0,VALID,96.7335,VALID,0.107441,VALID,20.2668,VALID,43,VALID,2.28984,
2010-12-20, 01:05:04,VALID,917.282,VALID,0,VALID,96.7183,VALID,0,VALID,20.2458,VALID,358,VALID,0.85625,
2010-12-20, 01:06:04,VALID,917.251,VALID,0,VALID,96.7335,VALID,0.107441,VALID,20.2263,VALID,297,VALID,0.836328,
2010-12-20, 01:07:04,VALID,917.253,VALID,0,VALID,96.764,VALID,0.107441,VALID,20.2668,VALID,36,VALID,0.696875,
2010-12-20, 01:08:04,VALID,917.239,VALID,0,VALID,96.7716,VALID,0,VALID,20.2863,VALID,36,VALID,1.13008,
2010-12-20, 01:09:04,VALID,917.294,VALID,0,VALID,96.7564,VALID,0.107441,VALID,20.3058,VALID,14,VALID,1.4668,
2010-12-20, 01:10:04,VALID,917.292,VALID,0,VALID,96.7335,VALID,0,VALID,20.2863,VALID,21,VALID,1.36406,
2010-12-20, 01:11:04,VALID,917.315,VALID,0,VALID,96.7107,VALID,0,VALID,20.2668,VALID,342,VALID,0.715625,
2010-12-20, 01:12:04,VALID,917.332,VALID,0,VALID,96.6878,VALID,0,VALID,20.2473,VALID,342,VALID,0.986328,
2010-12-20, 01:13:04,VALID,917.322,VALID,0,VALID,96.7259,VALID,0.107441,VALID,20.2668,VALID,342,VALID,0.546484,
2010-12-20, 01:14:04,VALID,917.331,VALID,0,VALID,96.6878,VALID,0,VALID,20.2473,VALID,32,VALID,1.25156,
2010-12-20, 01:15:04,VALID,917.275,VALID,0,VALID,96.7488,VALID,0,VALID,20.2489,VALID,22,VALID,0.900781,
2010-12-20, 01:16:04,VALID,917.276,VALID,0,VALID,96.7869,VALID,0,VALID,20.2684,VALID,22,VALID,0.614062,
2010-12-20, 01:17:04,VALID,917.233,VALID,0,VALID,96.7564,VALID,0,VALID,20.2863,VALID,22,VALID,0.913672,
2010-12-20, 01:18:04,VALID,917.202,VALID,0,VALID,96.6954,VALID,0,VALID,20.2684,VALID,341,VALID,1.23281,
2010-12-20, 01:19:04,VALID,917.157,VALID,0,VALID,96.7411,VALID,0,VALID,20.2684,VALID,341,VALID,0.675391,
2010-12-20, 01:20:04,VALID,917.134,VALID,0,VALID,96.7183,VALID,0,VALID,20.2473,VALID,341,VALID,0.833984,
2010-12-20, 01:21:04,VALID,917.161,VALID,0,VALID,96.7183,VALID,0,VALID,20.2684,VALID,341,VALID,0.868359,
2010-12-20, 01:22:04,VALID,917.192,VALID,0,VALID,96.7335,VALID,0,VALID,20.2684,VALID,341,VALID,0.815234,
2010-12-20, 01:23:04,VALID,917.185,VALID,0,VALID,96.764,VALID,0,VALID,20.2489,VALID,341,VALID,0.610937,
2010-12-20, 01:24:04,VALID,917.178,VALID,0,VALID,96.7793,VALID,0,VALID,20.2684,VALID,341,VALID,0.897656,
2010-12-20, 01:25:04,VALID,917.205,VALID,0,VALID,96.7564,VALID,0,VALID,20.2684,VALID,341,VALID,1.08281,
2010-12-20, 01:26:04,VALID,917.206,VALID,0,VALID,96.7945,VALID,0,VALID,20.2879,VALID,341,VALID,0.771094,
2010-12-20, 01:27:04,VALID,917.167,VALID,0,VALID,96.7335,VALID,0,VALID,20.2879,VALID,354,VALID,1.04922,
2010-12-20, 01:28:04,VALID,917.17,VALID,0,VALID,96.6649,VALID,0,VALID,20.2489,VALID,19,VALID,1.43477,
2010-12-20, 01:29:04,VALID,917.152,VALID,0,VALID,96.7488,VALID,0,VALID,20.2489,VALID,19,VALID,1.13984,
2010-12-20, 01:30:04,VALID,917.167,VALID,0,VALID,96.703,VALID,0.107441,VALID,20.2278,VALID,342,VALID,1.31562,
2010-12-20, 01:31:04,VALID,917.175,VALID,0,VALID,96.6573,VALID,0,VALID,20.1888,VALID,297,VALID,0.589844,
2010-12-20, 01:32:04,VALID,917.186,VALID,0,VALID,96.7335,VALID,0,VALID,20.1888,VALID,297,VALID,0.0523437,
2010-12-20, 01:33:04,VALID,917.184,VALID,0,VALID,96.764,VALID,0,VALID,20.2278,VALID,297,VALID,0.178125,
2010-12-20, 01:34:04,VALID,917.159,VALID,0,VALID,96.7411,VALID,0,VALID,20.2278,VALID,297,VALID,0.847266,
2010-12-20, 01:35:04,VALID,917.089,VALID,0,VALID,96.7411,VALID,0,VALID,20.2473,VALID,297,VALID,0.719531,
2010-12-20, 01:36:04,VALID,917.11,VALID,0,VALID,96.703,VALID,0.107441,VALID,20.2278,VALID,296,VALID,0.253906,
2010-12-20, 01:37:04,VALID,917.099,VALID,0,VALID,96.7259,VALID,0.107441,VALID,20.2278,VALID,296,VALID,0.513672,
2010-12-20, 01:38:04,VALID,917.098,VALID,0,VALID,96.6954,VALID,0,VALID,20.1873,VALID,296,VALID,0.966797,
2010-12-20, 01:39:04,VALID,917.076,VALID,0,VALID,96.7183,VALID,0,VALID,20.2083,VALID,296,VALID,0.351172,
2010-12-20, 01:40:04,VALID,917.066,VALID,0,VALID,96.7869,VALID,0,VALID,20.2278,VALID,297,VALID,0.398047,
2010-12-20, 01:41:04,VALID,917.035,VALID,0,VALID,96.764,VALID,0,VALID,20.2278,VALID,297,VALID,0.454297,
2010-12-20, 01:42:04,VALID,917.004,VALID,0,VALID,96.7793,VALID,0,VALID,20.2473,VALID,297,VALID,0.384375,
2010-12-20, 01:43:04,VALID,916.967,VALID,0,VALID,96.7716,VALID,0.107441,VALID,20.2263,VALID,297,VALID,0.456641,
2010-12-20, 01:44:04,VALID,916.913,VALID,0,VALID,96.7793,VALID,0.107441,VALID,20.2473,VALID,297,VALID,0.21875,
2010-12-20, 01:45:04,VALID,916.893,VALID,0,VALID,96.7793,VALID,0,VALID,20.2489,VALID,297,VALID,0.339844,
2010-12-20, 01:46:04,VALID,916.86,VALID,0,VALID,96.8403,VALID,0,VALID,20.2879,VALID,297,VALID,0.00664063,
2010-12-20, 01:47:04,VALID,916.82,VALID,0,VALID,96.8555,VALID,0,VALID,20.2863,VALID,297,VALID,0.419141,
2010-12-20, 01:48:04,VALID,916.818,VALID,0,VALID,96.8326,VALID,0,VALID,20.3074,VALID,297,VALID,0.320703,
2010-12-20, 01:49:04,VALID,916.831,VALID,0,VALID,96.7945,VALID,0,VALID,20.3074,VALID,331,VALID,0.320313,
2010-12-20, 01:50:04,VALID,916.812,VALID,0,VALID,96.8021,VALID,0,VALID,20.2684,VALID,332,VALID,0,
2010-12-20, 01:51:04,VALID,916.801,VALID,0,VALID,96.8403,VALID,0,VALID,20.2879,VALID,331,VALID,0.0792969,
2010-12-20, 01:52:04,VALID,916.806,VALID,0,VALID,96.825,VALID,0,VALID,20.3074,VALID,331,VALID,0.321094,
2010-12-20, 01:53:04,VALID,916.806,VALID,0,VALID,96.7259,VALID,0,VALID,20.2489,VALID,332,VALID,0.334766,
2010-12-20, 01:54:04,VALID,916.791,VALID,0,VALID,96.7107,VALID,0,VALID,20.2293,VALID,332,VALID,0.504687,
2010-12-20, 01:55:04,VALID,916.813,VALID,0,VALID,96.764,VALID,0,VALID,20.2489,VALID,348,VALID,0.895703,
2010-12-20, 01:56:04,VALID,916.796,VALID,0,VALID,96.7411,VALID,0,VALID,20.2489,VALID,4,VALID,0.704297,
2010-12-20, 01:57:04,VALID,916.757,VALID,0,VALID,96.6649,VALID,0,VALID,20.2293,VALID,4,VALID,0.723047,
2010-12-20, 01:58:04,VALID,916.734,VALID,0,VALID,96.6802,VALID,0,VALID,20.2098,VALID,4,VALID,0.779297,
2010-12-20, 01:59:04,VALID,916.656,VALID,0,VALID,96.6954,VALID,0,VALID,20.2098,VALID,4,VALID,0.774219,
2010-12-20, 02:00:04,VALID,916.614,VALID,0,VALID,96.703,VALID,0,VALID,20.1903,VALID,354,VALID,1.19687,
2010-12-20, 02:01:04,VALID,916.618,VALID,0,VALID,96.7411,VALID,0,VALID,20.1708,VALID,354,VALID,0.863281,
2010-12-20, 02:02:04,VALID,916.591,VALID,0,VALID,96.7259,VALID,0,VALID,20.1708,VALID,354,VALID,0.701172,
2010-12-20, 02:03:04,VALID,916.565,VALID,0,VALID,96.7716,VALID,0,VALID,20.2114,VALID,354,VALID,0.893359,
2010-12-20, 02:04:04,VALID,916.572,VALID,0,VALID,96.825,VALID,0,VALID,20.1903,VALID,354,VALID,0.758203,
2010-12-20, 02:05:04,VALID,916.549,VALID,0,VALID,96.7564,VALID,0,VALID,20.2114,VALID,354,VALID,0.816797,
2010-12-20, 02:06:04,VALID,916.558,VALID,0,VALID,96.7793,VALID,0,VALID,20.1903,VALID,350,VALID,1.00273,
2010-12-20, 02:07:04,VALID,916.529,VALID,0,VALID,96.7107,VALID,0,VALID,20.1513,VALID,338,VALID,0.980859,
2010-12-20, 02:08:04,VALID,916.53,VALID,0,VALID,96.7411,VALID,0,VALID,20.1318,VALID,17,VALID,1.19297,
2010-12-20, 02:09:04,VALID,916.475,VALID,0,VALID,96.7488,VALID,0,VALID,20.1123,VALID,25,VALID,1.40391,
2010-12-20, 02:10:04,VALID,916.478,VALID,0,VALID,96.7488,VALID,0,VALID,20.1123,VALID,25,VALID,1.36055,
2010-12-20, 02:11:04,VALID,916.458,VALID,0,VALID,96.7411,VALID,0,VALID,20.1123,VALID,25,VALID,1.21797,
2010-12-20, 02:12:04,VALID,916.47,VALID,0,VALID,96.7564,VALID,0,VALID,20.0928,VALID,25,VALID,0.610937,
2010-12-20, 02:13:04,VALID,916.442,VALID,0,VALID,96.7869,VALID,0,VALID,20.0928,VALID,26,VALID,0.862109,
2010-12-20, 02:14:04,VALID,916.45,VALID,0,VALID,96.825,VALID,0,VALID,20.0928,VALID,26,VALID,0.701563,
2010-12-20, 02:15:04,VALID,916.445,VALID,0,VALID,96.8174,VALID,0,VALID,20.0928,VALID,25,VALID,0.262109,
2010-12-20, 02:16:04,VALID,916.405,VALID,0,VALID,96.8098,VALID,0,VALID,20.0928,VALID,25,VALID,0.59375,
2010-12-20, 02:17:04,VALID,916.407,VALID,0,VALID,96.8479,VALID,0,VALID,20.0928,VALID,26,VALID,0.732422,
2010-12-20, 02:18:04,VALID,916.428,VALID,0,VALID,96.825,VALID,0,VALID,20.0928,VALID,25,VALID,0.321875,
2010-12-20, 02:19:04,VALID,916.419,VALID,0,VALID,96.764,VALID,0,VALID,20.0538,VALID,313,VALID,0.948828,
2010-12-20, 02:20:04,VALID,916.403,VALID,0,VALID,96.7945,VALID,0,VALID,20.0538,VALID,346,VALID,1.30508,
2010-12-20, 02:21:04,VALID,916.417,VALID,0,VALID,96.7564,VALID,0,VALID,20.0148,VALID,355,VALID,0.494922,
2010-12-20, 02:22:04,VALID,916.404,VALID,0,VALID,96.7564,VALID,0,VALID,20.0148,VALID,355,VALID,0.799609,
2010-12-20, 02:23:04,VALID,916.378,VALID,0,VALID,96.764,VALID,0,VALID,20.0163,VALID,326,VALID,1.35742,
2010-12-20, 02:24:04,VALID,916.342,VALID,0,VALID,96.7335,VALID,0,VALID,19.9563,VALID,354,VALID,1.4793,
2010-12-20, 02:25:04,VALID,916.335,VALID,0,VALID,96.7716,VALID,0,VALID,19.9758,VALID,354,VALID,0.985937,
2010-12-20, 02:26:04,VALID,916.279,VALID,0,VALID,96.8479,VALID,0,VALID,19.9953,VALID,354,VALID,0.791406,
2010-12-20, 02:27:04,VALID,916.235,VALID,0,VALID,96.825,VALID,0,VALID,20.0343,VALID,354,VALID,0.874219,
2010-12-20, 02:28:04,VALID,916.256,VALID,0,VALID,96.7945,VALID,0,VALID,19.9953,VALID,354,VALID,0.464063,
2010-12-20, 02:29:04,VALID,916.22,VALID,0,VALID,96.7945,VALID,0,VALID,19.9953,VALID,354,VALID,0.444531,
2010-12-20, 02:30:04,VALID,916.249,VALID,0,VALID,96.7488,VALID,0.107441,VALID,19.9938,VALID,354,VALID,0.813672,
2010-12-20, 02:31:04,VALID,916.223,VALID,0,VALID,96.7869,VALID,0,VALID,19.9743,VALID,354,VALID,0.801172,
2010-12-20, 02:32:04,VALID,916.213,VALID,0,VALID,96.8555,VALID,0,VALID,19.9938,VALID,354,VALID,0.633203,
2010-12-20, 02:33:04,VALID,916.203,VALID,0,VALID,96.8021,VALID,0,VALID,19.9938,VALID,354,VALID,1.22734,
2010-12-20, 02:34:04,VALID,916.17,VALID,0,VALID,96.825,VALID,0,VALID,20.0133,VALID,354,VALID,1.36914,
2010-12-20, 02:35:04,VALID,916.16,VALID,0,VALID,96.7564,VALID,0,VALID,19.9938,VALID,354,VALID,1.48125,
2010-12-20, 02:36:04,VALID,916.145,VALID,0,VALID,96.764,VALID,0,VALID,19.9548,VALID,354,VALID,1.04609,
2010-12-20, 02:37:04,VALID,916.111,VALID,0,VALID,96.7488,VALID,0,VALID,19.9563,VALID,354,VALID,1.39883,
2010-12-20, 02:38:04,VALID,916.1,VALID,0,VALID,96.7259,VALID,0,VALID,19.8963,VALID,354,VALID,1.14141,
2010-12-20, 02:39:04,VALID,916.11,VALID,0,VALID,96.7259,VALID,0,VALID,19.8768,VALID,354,VALID,0.655859,
2010-12-20, 02:40:04,VALID,916.159,VALID,0,VALID,96.7183,VALID,0,VALID,19.8378,VALID,354,VALID,0.593359,
2010-12-20, 02:41:04,VALID,916.123,VALID,0,VALID,96.7564,VALID,0,VALID,19.8183,VALID,354,VALID,0.147656,
2010-12-20, 02:42:04,VALID,916.11,VALID,0,VALID,96.7793,VALID,0,VALID,19.7988,VALID,354,VALID,0.361719,
2010-12-20, 02:43:04,VALID,916.104,VALID,0,VALID,96.8403,VALID,0,VALID,19.8183,VALID,354,VALID,0.400391,
2010-12-20, 02:44:04,VALID,916.091,VALID,0,VALID,96.8326,VALID,0,VALID,19.8183,VALID,354,VALID,0.00585938,
2010-12-20, 02:45:04,VALID,916.102,VALID,0,VALID,96.8098,VALID,0,VALID,19.8003,VALID,354,VALID,0.285547,
2010-12-20, 02:46:04,VALID,916.111,VALID,0,VALID,96.8326,VALID,0,VALID,19.8018,VALID,354,VALID,0,
2010-12-20, 02:47:04,VALID,916.076,VALID,0,VALID,96.825,VALID,0,VALID,19.7808,VALID,354,VALID,0.444531,
2010-12-20, 02:48:04,VALID,916.045,VALID,0,VALID,96.8174,VALID,0,VALID,19.7823,VALID,354,VALID,0.522266,
2010-12-20, 02:49:04,VALID,916.05,VALID,0,VALID,96.8174,VALID,0,VALID,19.7418,VALID,354,VALID,0.258594,
2010-12-20, 02:50:04,VALID,916.048,VALID,0,VALID,96.8555,VALID,0,VALID,19.7613,VALID,354,VALID,0.338281,
2010-12-20, 02:51:04,VALID,916.011,VALID,0,VALID,96.8479,VALID,0,VALID,19.7613,VALID,354,VALID,0,
2010-12-20, 02:52:04,VALID,915.993,VALID,0,VALID,96.886,VALID,0,VALID,19.7613,VALID,354,VALID,0,
2010-12-20, 02:53:04,VALID,916,VALID,0,VALID,96.8479,VALID,0,VALID,19.7628,VALID,354,VALID,0.244141,
2010-12-20, 02:54:04,VALID,915.984,VALID,0,VALID,96.8631,VALID,0,VALID,19.7418,VALID,354,VALID,0.0292969,
2010-12-20, 02:55:04,VALID,915.947,VALID,0,VALID,96.8631,VALID,0,VALID,19.7418,VALID,354,VALID,0.209766,
2010-12-20, 02:56:04,VALID,915.945,VALID,0,VALID,96.8707,VALID,0,VALID,19.7418,VALID,354,VALID,0.326562,
2010-12-20, 02:57:04,VALID,915.985,VALID,0,VALID,96.886,VALID,0,VALID,19.7223,VALID,354,VALID,0.210938,
2010-12-20, 02:58:04,VALID,915.991,VALID,0,VALID,96.8707,VALID,0,VALID,19.6833,VALID,354,VALID,0.406641,
2010-12-20, 02:59:04,VALID,915.984,VALID,0,VALID,96.8784,VALID,0,VALID,19.6638,VALID,354,VALID,0.383984,
2010-12-20, 03:00:04,VALID,915.968,VALID,0,VALID,96.8936,VALID,0.107441,VALID,19.6638,VALID,354,VALID,0.171094,
2010-12-20, 03:01:04,VALID,915.986,VALID,0,VALID,96.9012,VALID,0,VALID,19.6443,VALID,354,VALID,0.0078125,
2010-12-20, 03:02:04,VALID,915.983,VALID,0,VALID,96.9394,VALID,0,VALID,19.6233,VALID,354,VALID,0.180078,
2010-12-20, 03:03:04,VALID,915.994,VALID,0,VALID,96.9165,VALID,0,VALID,19.6038,VALID,354,VALID,0.435547,
2010-12-20, 03:04:04,VALID,916.03,VALID,0,VALID,96.9089,VALID,0,VALID,19.5843,VALID,354,VALID,0.156641,
2010-12-20, 03:05:04,VALID,915.982,VALID,0,VALID,96.9317,VALID,0,VALID,19.5843,VALID,354,VALID,0.161328,
2010-12-20, 03:06:04,VALID,915.991,VALID,0,VALID,96.9317,VALID,0,VALID,19.5648,VALID,354,VALID,0.0109375,
2010-12-20, 03:07:04,VALID,915.939,VALID,0,VALID,96.9317,VALID,0.107441,VALID,19.5648,VALID,354,VALID,0,
2010-12-20, 03:08:04,VALID,915.901,VALID,0,VALID,96.8021,VALID,0.107441,VALID,19.5063,VALID,354,VALID,0.257422,
2010-12-20, 03:09:04,VALID,915.876,VALID,0,VALID,96.825,VALID,0,VALID,19.4283,VALID,354,VALID,0,
2010-12-20, 03:10:04,VALID,915.853,VALID,0,VALID,96.8707,VALID,0,VALID,19.4283,VALID,354,VALID,0,
2010-12-20, 03:11:04,VALID,915.868,VALID,0,VALID,96.9241,VALID,0.107441,VALID,19.4283,VALID,354,VALID,0,
2010-12-20, 03:12:04,VALID,915.851,VALID,0,VALID,96.9927,VALID,0.107441,VALID,19.4673,VALID,354,VALID,0,
2010-12-20, 03:13:04,VALID,915.853,VALID,0,VALID,96.9851,VALID,0,VALID,19.4673,VALID,354,VALID,0.11875,
2010-12-20, 03:14:04,VALID,915.845,VALID,0,VALID,97.0156,VALID,0.107441,VALID,19.4883,VALID,354,VALID,0.162109,
2010-12-20, 03:15:04,VALID,915.837,VALID,0,VALID,97.0385,VALID,0,VALID,19.4688,VALID,354,VALID,0,
2010-12-20, 03:16:04,VALID,915.857,VALID,0,VALID,97.0461,VALID,0,VALID,19.4898,VALID,354,VALID,0.154687,
2010-12-20, 03:17:04,VALID,915.853,VALID,0,VALID,97.0537,VALID,0,VALID,19.4883,VALID,354,VALID,0.281641,
2010-12-20, 03:18:04,VALID,915.831,VALID,0,VALID,97.0613,VALID,0,VALID,19.5288,VALID,354,VALID,0.287891,
2010-12-20, 03:19:04,VALID,915.855,VALID,0,VALID,97.0461,VALID,0,VALID,19.5498,VALID,354,VALID,0,
2010-12-20, 03:20:04,VALID,915.865,VALID,0,VALID,97.069,VALID,0,VALID,19.5093,VALID,354,VALID,0,
2010-12-20, 03:21:04,VALID,915.835,VALID,0,VALID,97.0537,VALID,0,VALID,19.5078,VALID,354,VALID,0,
2010-12-20, 03:22:04,VALID,915.819,VALID,0,VALID,97.069,VALID,0,VALID,19.5093,VALID,354,VALID,0,
2010-12-20, 03:23:04,VALID,915.811,VALID,0,VALID,97.0003,VALID,0,VALID,19.4298,VALID,354,VALID,0,
2010-12-20, 03:24:04,VALID,915.811,VALID,0,VALID,96.9775,VALID,0,VALID,19.3923,VALID,354,VALID,0,
2010-12-20, 03:25:04,VALID,915.797,VALID,0,VALID,97.0308,VALID,0,VALID,19.3713,VALID,354,VALID,0,
2010-12-20, 03:26:04,VALID,915.767,VALID,0,VALID,97.008,VALID,0,VALID,19.3533,VALID,354,VALID,0.303125,
2010-12-20, 03:27:04,VALID,915.802,VALID,0,VALID,97.008,VALID,0,VALID,19.2933,VALID,354,VALID,0.328906,
2010-12-20, 03:28:04,VALID,915.803,VALID,0,VALID,97.008,VALID,0,VALID,19.2753,VALID,354,VALID,0.439063,
2010-12-20, 03:29:04,VALID,915.766,VALID,0,VALID,97.008,VALID,0,VALID,19.2363,VALID,354,VALID,0,
2010-12-20, 03:30:04,VALID,915.774,VALID,0,VALID,97.0232,VALID,0,VALID,19.2153,VALID,354,VALID,0,
2010-12-20, 03:31:04,VALID,915.732,VALID,0,VALID,97.0156,VALID,0,VALID,19.2168,VALID,354,VALID,0,
2010-12-20, 03:32:04,VALID,915.701,VALID,0,VALID,97.008,VALID,0,VALID,19.1778,VALID,354,VALID,0,
2010-12-20, 03:33:04,VALID,915.653,VALID,0,VALID,96.9775,VALID,0,VALID,19.1193,VALID,354,VALID,0,
2010-12-20, 03:34:04,VALID,915.646,VALID,0,VALID,97.008,VALID,0,VALID,19.0983,VALID,354,VALID,0.378516,
2010-12-20, 03:35:04,VALID,915.659,VALID,0,VALID,97.0156,VALID,0,VALID,19.0608,VALID,354,VALID,0.308984,
2010-12-20, 03:36:04,VALID,915.655,VALID,0,VALID,97.0308,VALID,0,VALID,19.0398,VALID,354,VALID,0.301172,
2010-12-20, 03:37:04,VALID,915.62,VALID,0,VALID,97.0613,VALID,0,VALID,19.0218,VALID,354,VALID,0.237891,
2010-12-20, 03:38:04,VALID,915.589,VALID,0,VALID,97.069,VALID,0,VALID,19.0189,VALID,354,VALID,0.225,
2010-12-20, 03:39:04,VALID,915.557,VALID,0,VALID,97.1376,VALID,0,VALID,19.0203,VALID,354,VALID,0.333984,
2010-12-20, 03:40:04,VALID,915.55,VALID,0,VALID,97.1452,VALID,0,VALID,19.0398,VALID,354,VALID,0.585156,
2010-12-20, 03:41:04,VALID,915.535,VALID,0,VALID,97.1986,VALID,0,VALID,19.0788,VALID,354,VALID,0.578906,
2010-12-20, 03:42:04,VALID,915.525,VALID,0,VALID,97.2443,VALID,0,VALID,19.1373,VALID,354,VALID,0.516016,
2010-12-20, 03:43:04,VALID,915.475,VALID,0,VALID,97.2672,VALID,0,VALID,19.1568,VALID,354,VALID,0.39375,
2010-12-20, 03:44:04,VALID,915.491,VALID,0,VALID,97.2824,VALID,0,VALID,19.2153,VALID,354,VALID,0,
2010-12-20, 03:45:04,VALID,915.466,VALID,0,VALID,97.2748,VALID,0,VALID,19.2348,VALID,354,VALID,0,